Regional Weather Roundup
Issued by NWS

Home | Current Version | Previous Version | Text Only | Print | Product List | Glossary Off
Versions: 1 2 3 4 5 6 7 8 9 10 11 12 13 14 15 16 17 18 19 20 21 22 23 24 25 26 27 28 29 30 31 32 33 34 35 36 37 38 39 40 41 42 43 44 45 46 47 48 49 50

000
ASUS43 KLMK 030702
RWRKY
KENTUCKY REGIONAL WEATHER ROUNDUP
NATIONAL WEATHER SERVICE LOUISVILLE KY
300 AM EDT THU SEP 03 2015

NOTE "FAIR" INDICATES FEW OR NO CLOUDS BELOW 12,000 FEET
WITH NO SIGNIFICANT WEATHER AND/OR OBSTRUCTIONS TO VISIBILITY.

KYZ001>023-026-027-061>063-070>075-030800-
WESTERN AND SOUTH CENTRAL KENTUCKY

CITY           SKY/WX    TMP DP  RH WIND       PRES   REMARKS
PADUCAH        CLEAR     68  66  93 CALM      30.00F FOG
HENDERSON      CLEAR     68  64  88 CALM      29.99F
OWENSBORO      CLEAR     71  69  93 CALM      30.01F
HOPKINSVILLE   CLEAR     72  67  82 CALM      30.01F
BOWLING GREEN  CLEAR     71  67  87 CALM      30.02F
GLASGOW        NOT AVBL
$$

KYZ024-025-028>034-038-045-046-053-030800-
NORTH CENTRAL KENTUCKY

CITY           SKY/WX    TMP DP  RH WIND       PRES   REMARKS
LOUISVILLE/SDF CLEAR     75  69  81 CALM      30.01F
LOUISVILLE/LOU CLEAR     73  69  87 CALM      30.02F
FORT KNOX      CLEAR     67  66  95 CALM      30.01F FOG
$$

KYZ035>037-039>044-047>052-055>060-089>105-030800-
NORTHEAST KENTUCKY

CITY           SKY/WX    TMP DP  RH WIND       PRES   REMARKS
LEXINGTON      CLEAR     67  64  90 CALM      30.04S FOG
COVINGTON      MOCLDY    70  67  90 CALM      30.02F
FRANKFORT      CLEAR     69  66  90 CALM      30.02F FOG
$$

KYZ054-064>069-076>088-106>120-030800-
SOUTHEAST KENTUCKY

CITY           SKY/WX    TMP DP  RH WIND       PRES   REMARKS
JACKSON        CLEAR     71  66  84 CALM      30.05F
LONDON         PTCLDY    68  64  87 CALM      30.05F FOG
SOMERSET       NOT AVBL
MIDDLESBORO    MOCLDY    66  65  97 CALM      30.06F
MONTICELLO     SUNNY     64  64 100 CALM      30.07S FOG
$$



USA.gov is the U.S. government's official web portal to all federal, state and local government web resources and services.